• In Uzbekistan
  • List of Countries
  • For 7 days
  • Water Temperature
  • Satellite Maps
  • Weather Map
  • Weather Widgets
  • user-avatar
    Login

    Hourly Weather Puerto Ayacucho

    Today, 22 May, Wednesday

    Time Temperature Precipitation Wind Pressure Humidity
    00:00 +26°C° 0 mm 1 mps 753 mmHg 89%
    01:00 +26°C° 0 mm 1 mps 753 mmHg 89%
    02:00 +26°C° 0 mm 1 mps 753 mmHg 89%
    03:00 +25°C° 0 mm 1 mps 753 mmHg 88%
    04:00 +25°C° 0 mm 1 mps 753 mmHg 88%
    05:00 +26°C° 0.1 mm 1 mps 753 mmHg 85%
    06:00 +27°C° 0.1 mm 1 mps 753 mmHg 82%
    07:00 +28°C° 0.1 mm 1 mps 753 mmHg 80%
    08:00 +29°C° 0.1 mm 1 mps 753 mmHg 74%
    09:00 +31°C° 0.1 mm 1 mps 753 mmHg 69%
    10:00 +32°C° 0.1 mm 1 mps 753 mmHg 64%
    11:00 +32°C° 1.2 mm 1 mps 753 mmHg 65%
    12:00 +34°C° 1.2 mm 2 mps 752 mmHg 66%
    13:00 +34°C° 1.2 mm 2 mps 751 mmHg 67%
    14:00 +32°C° 0.9 mm 2 mps 751 mmHg 70%
    15:00 +32°C° 0.9 mm 2 mps 750 mmHg 72%
    16:00 +31°C° 0.9 mm 1 mps 750 mmHg 75%
    17:00 +30°C° 2.1 mm 1 mps 750 mmHg 79%
    18:00 +29°C° 2.1 mm 1 mps 751 mmHg 83%
    19:00 +28°C° 2.1 mm 1 mps 751 mmHg 87%
    20:00 +28°C° 3 mm 1 mps 752 mmHg 88%
    21:00 +27°C° 3 mm 1 mps 752 mmHg 90%
    22:00 +27°C° 3 mm 2 mps 753 mmHg 91%
    23:00 +27°C° 2.3 mm 1 mps 753 mmHg 92%

    Tomorrow, 23 May, Thursday

    Time Temperature Precipitation Wind Pressure Humidity
    00:00 +27°C° 2.3 mm 1 mps 752 mmHg 93%
    01:00 +26°C° 2.3 mm 1 mps 752 mmHg 94%
    02:00 +26°C° 1.9 mm 1 mps 752 mmHg 94%
    03:00 +26°C° 1.9 mm 1 mps 752 mmHg 94%
    04:00 +26°C° 1.9 mm 1 mps 752 mmHg 95%
    05:00 +26°C° 2.5 mm 1 mps 752 mmHg 95%
    06:00 +26°C° 2.5 mm 1 mps 753 mmHg 95%
    07:00 +26°C° 2.5 mm 1 mps 753 mmHg 95%
    08:00 +26°C° 3 mm 1 mps 753 mmHg 95%
    09:00 +26°C° 3 mm 1 mps 754 mmHg 95%
    10:00 +26°C° 3 mm 1 mps 754 mmHg 95%
    11:00 +27°C° 0.4 mm 1 mps 753 mmHg 89%
    12:00 +28°C° 0.4 mm 1 mps 752 mmHg 83%
    13:00 +30°C° 0.4 mm 1 mps 752 mmHg 78%
    14:00 +30°C° 0.1 mm 1 mps 751 mmHg 77%
    15:00 +30°C° 0.1 mm 1 mps 751 mmHg 77%
    16:00 +30°C° 0.1 mm 1 mps 750 mmHg 77%
    17:00 +29°C° 0.1 mm 1 mps 751 mmHg 81%
    18:00 +28°C° 0.1 mm 1 mps 751 mmHg 85%
    19:00 +25°C° 0.1 mm 0 mps 752 mmHg 88%
    20:00 +25°C° 0 mm 0 mps 752 mmHg 89%
    21:00 +26°C° 0 mm 1 mps 753 mmHg 90%
    22:00 +26°C° 0 mm 1 mps 753 mmHg 90%
    23:00 +26°C° 0 mm 1 mps 753 mmHg 91%

    Day after tomorrow, 24 May, Friday

    Time Temperature Precipitation Wind Pressure Humidity
    00:00 +26°C° 0 mm 1 mps 753 mmHg 91%
    01:00 +24°C° 0 mm 0 mps 752 mmHg 92%
    02:00 +26°C° 0 mm 1 mps 752 mmHg 91%
    03:00 +25°C° 0 mm 1 mps 752 mmHg 91%
    04:00 +25°C° 0 mm 1 mps 752 mmHg 90%
    05:00 +26°C° 0 mm 1 mps 752 mmHg 88%
    06:00 +27°C° 0 mm 1 mps 753 mmHg 85%
    07:00 +25°C° 0 mm 0 mps 753 mmHg 82%
    08:00 +29°C° 0 mm 1 mps 753 mmHg 77%
    09:00 +30°C° 0 mm 1 mps 753 mmHg 72%
    10:00 +31°C° 0 mm 1 mps 753 mmHg 67%
    11:00 +32°C° 0 mm 1 mps 752 mmHg 63%
    12:00 +33°C° 0 mm 1 mps 751 mmHg 60%
    13:00 +34°C° 0 mm 1 mps 751 mmHg 57%
    14:00 +33°C° 0.4 mm 1 mps 750 mmHg 62%
    15:00 +33°C° 0.4 mm 1 mps 750 mmHg 67%
    16:00 +32°C° 0.4 mm 1 mps 749 mmHg 72%
    17:00 +31°C° 0.6 mm 2 mps 750 mmHg 77%
    18:00 +29°C° 0.6 mm 2 mps 751 mmHg 82%
    19:00 +28°C° 0.6 mm 2 mps 751 mmHg 86%
    20:00 +28°C° 0.1 mm 2 mps 752 mmHg 87%
    21:00 +27°C° 0.1 mm 2 mps 752 mmHg 87%
    22:00 +27°C° 0.1 mm 2 mps 753 mmHg 87%
    23:00 +27°C° 0 mm 2 mps 753 mmHg 87%

    25 May, Saturday

    Time Temperature Precipitation Wind Pressure Humidity
    00:00 +26°C° 0 mm 2 mps 752 mmHg 87%
    01:00 +26°C° 0 mm 2 mps 752 mmHg 87%
    02:00 +26°C° 0.1 mm 1 mps 751 mmHg 88%
    03:00 +26°C° 0.1 mm 1 mps 751 mmHg 88%
    04:00 +26°C° 0.1 mm 1 mps 751 mmHg 89%
    05:00 +26°C° 0.1 mm 1 mps 752 mmHg 88%
    06:00 +26°C° 0.1 mm 1 mps 752 mmHg 87%
    07:00 +27°C° 0.1 mm 1 mps 753 mmHg 87%
    08:00 +27°C° 0.2 mm 1 mps 753 mmHg 87%
    09:00 +27°C° 0.2 mm 1 mps 753 mmHg 87%
    10:00 +27°C° 0.2 mm 1 mps 753 mmHg 88%
    11:00 +28°C° 0.1 mm 1 mps 752 mmHg 82%
    12:00 +30°C° 0.1 mm 1 mps 751 mmHg 76%
    13:00 +31°C° 0.1 mm 1 mps 750 mmHg 70%
    14:00 +31°C° 0.2 mm 1 mps 750 mmHg 69%
    15:00 +32°C° 0.2 mm 1 mps 749 mmHg 67%
    16:00 +30°C° 0.2 mm 0 mps 749 mmHg 66%
    17:00 +31°C° 0.2 mm 1 mps 750 mmHg 70%
    18:00 +30°C° 0.2 mm 1 mps 750 mmHg 75%
    19:00 +28°C° 0.2 mm 1 mps 751 mmHg 79%
    20:00 +28°C° 0.1 mm 2 mps 752 mmHg 80%
    21:00 +28°C° 0.1 mm 2 mps 752 mmHg 80%
    22:00 +27°C° 0.1 mm 2 mps 752 mmHg 81%
    23:00 +27°C° 0.4 mm 2 mps 752 mmHg 82%

    26 May, Sunday

    Time Temperature Precipitation Wind Pressure Humidity
    00:00 +27°C° 0.4 mm 2 mps 751 mmHg 83%
    01:00 +26°C° 0.4 mm 2 mps 751 mmHg 84%
    02:00 +26°C° 1.1 mm 1 mps 751 mmHg 85%
    03:00 +26°C° 1.1 mm 1 mps 751 mmHg 87%
    04:00 +26°C° 1.1 mm 1 mps 751 mmHg 88%
    05:00 +26°C° 0.1 mm 1 mps 752 mmHg 87%
    06:00 +27°C° 0.1 mm 1 mps 752 mmHg 87%
    07:00 +27°C° 0.1 mm 1 mps 753 mmHg 86%
    08:00 +28°C° 0 mm 1 mps 753 mmHg 82%
    09:00 +29°C° 0 mm 1 mps 753 mmHg 78%
    10:00 +31°C° 0 mm 2 mps 753 mmHg 73%
    11:00 +31°C° 0.1 mm 2 mps 752 mmHg 73%
    12:00 +31°C° 0.1 mm 2 mps 751 mmHg 72%
    13:00 +32°C° 0.1 mm 2 mps 751 mmHg 72%
    14:00 +32°C° 0.3 mm 2 mps 750 mmHg 73%
    15:00 +31°C° 0.3 mm 2 mps 750 mmHg 74%
    16:00 +31°C° 0.3 mm 1 mps 750 mmHg 75%
    17:00 +30°C° 0.6 mm 1 mps 750 mmHg 79%
    18:00 +29°C° 0.6 mm 1 mps 751 mmHg 83%
    19:00 +27°C° 0.6 mm 0 mps 751 mmHg 87%
    20:00 +26°C° 1.9 mm 0 mps 752 mmHg 89%
    21:00 +28°C° 1.9 mm 1 mps 752 mmHg 90%
    22:00 +27°C° 1.9 mm 1 mps 752 mmHg 92%
    23:00 +27°C° 1.3 mm 1 mps 752 mmHg 93%

    27 May, Monday

    Time Temperature Precipitation Wind Pressure Humidity
    00:00 +27°C° 1.3 mm 1 mps 752 mmHg 93%
    01:00 +27°C° 1.3 mm 1 mps 751 mmHg 94%
    02:00 +26°C° 1.1 mm 1 mps 751 mmHg 94%
    03:00 +26°C° 1.1 mm 1 mps 751 mmHg 93%
    04:00 +26°C° 1.1 mm 1 mps 751 mmHg 93%
    05:00 +26°C° 1.6 mm 1 mps 752 mmHg 93%
    06:00 +26°C° 1.6 mm 1 mps 752 mmHg 92%
    07:00 +27°C° 1.6 mm 1 mps 753 mmHg 92%
    08:00 +27°C° 0.9 mm 1 mps 753 mmHg 92%
    09:00 +27°C° 0.9 mm 1 mps 753 mmHg 92%
    10:00 +27°C° 0.9 mm 1 mps 753 mmHg 92%
    11:00 +29°C° 0 mm 2 mps 752 mmHg 84%
    12:00 +30°C° 0 mm 2 mps 751 mmHg 76%
    13:00 +32°C° 0 mm 2 mps 751 mmHg 68%
    14:00 +31°C° 0.2 mm 2 mps 750 mmHg 70%
    15:00 +31°C° 0.2 mm 1 mps 750 mmHg 72%
    16:00 +31°C° 0.2 mm 1 mps 749 mmHg 74%
    17:00 +30°C° 0.2 mm 1 mps 750 mmHg 77%
    18:00 +27°C° 0.2 mm 0 mps 751 mmHg 81%
    19:00 +26°C° 0.2 mm 0 mps 751 mmHg 85%
    20:00 +26°C° 0.3 mm 0 mps 751 mmHg 86%
    21:00 +26°C° 0.3 mm 0 mps 752 mmHg 87%
    22:00 +28°C° 0.3 mm 1 mps 752 mmHg 88%
    23:00 +27°C° 0.4 mm 1 mps 752 mmHg 89%
    Show more